Weather reports worldwide

Advertisment
Dunkerque, France (7010): temperature & dewpoint: 08.11.2018 13:00:00 - 14.11.2018 13:00:00 (CET)Dunkerque, France (7010): wind speed & gusts: 08.11.2018 13:00:00 - 14.11.2018 13:00:00 (CET)Dunkerque, France (7010): wind direction: 08.11.2018 13:00:00 - 14.11.2018 13:00:00 (CET)Dunkerque, France (7010): reduced air pressure: 08.11.2018 13:00:00 - 14.11.2018 13:00:00 (CET)Dunkerque, France (7010): visibility: 08.11.2018 13:00:00 - 14.11.2018 13:00:00 (CET)Dunkerque, France (7010): precipitation: 08.11.2018 13:00:00 - 14.11.2018 13:00:00 (CET)
Date & Time tt [°C] td [°C] ff [km/h] ff [kn] fx [km/h] fx [kn] dd ppp [hPa] vv [km] rr [mm]
14.11.2018 13:00:00 12,7 8,6 20 11 29 16 S 1025,4 - 0,0
14.11.2018 12:00:00 11,8 8,1 18 10 26 14 S 1025,9 - 0,0
14.11.2018 11:00:00 10,6 7,7 15 8 24 13 S 1026,5 - 0,0
14.11.2018 10:00:00 8,8 6,9 16 9 23 13 S 1026,4 10 0,0
14.11.2018 09:00:00 7,0 5,8 13 7 22 12 S 1026,4 - 0,2
14.11.2018 08:00:00 7,0 5,9 14 7 21 11 S 1026,0 - -
14.11.2018 07:00:00 7,3 5,9 11 6 23 13 S 1025,8 - 0,0
14.11.2018 06:00:00 7,9 6,5 13 7 19 10 S 1025,8 - 0,0
14.11.2018 05:00:00 8,1 6,6 13 7 26 14 SSW 1025,9 - 0,0
14.11.2018 04:00:00 8,2 6,3 16 9 23 13 S 1026,2 - 0,0
14.11.2018 03:00:00 8,3 6,4 14 7 19 10 S 1027,2 - 0,0
14.11.2018 02:00:00 8,6 6,6 10 6 21 12 S 1027,6 - 0,0
14.11.2018 01:00:00 9,0 6,8 14 8 21 11 SSW 1027,9 - 0,0
14.11.2018 00:00:00 9,3 7,1 15 8 21 11 S 1027,7 - 0,0
13.11.2018 23:00:00 9,7 7,6 15 8 22 12 S 1027,8 - 0,0
13.11.2018 22:00:00 10,0 8,3 14 8 23 12 SSW 1027,6 - 0,0
13.11.2018 21:00:00 10,4 9,0 13 7 19 10 S 1027,3 - 0,0
13.11.2018 20:00:00 10,5 9,1 13 7 19 11 S 1027,2 - 0,0
13.11.2018 19:00:00 10,6 8,9 14 8 21 11 SSW 1026,8 - 0,0
13.11.2018 18:00:00 11,1 9,2 13 7 19 11 SSW 1026,3 - 0,0
13.11.2018 17:00:00 12,8 8,5 12 6 40 22 SSW 1025,8 - 0,0
13.11.2018 16:00:00 13,9 8,9 19 10 40 21 WSW 1025,1 - 0,0
13.11.2018 15:00:00 14,1 9,3 19 10 40 22 WSW 1024,5 - 0,0
13.11.2018 14:00:00 13,7 8,3 19 11 41 22 W 1024,0 - 0,0
13.11.2018 13:00:00 12,7 9,1 20 11 47 25 W 1023,5 - 0,0
13.11.2018 12:00:00 13,0 9,6 20 11 29 16 SSW 1023,1 - 0,0
13.11.2018 11:00:00 11,7 8,9 18 10 33 18 SW 1022,6 - 0,0
13.11.2018 10:00:00 10,5 8,4 18 10 31 17 SSW 1021,7 15 0,0
13.11.2018 09:00:00 9,0 7,6 17 9 30 16 SSW 1020,6 - 0,0
13.11.2018 08:00:00 9,1 7,4 22 12 35 19 SSW 1019,7 - 0,6
13.11.2018 07:00:00 9,6 8,2 23 13 39 21 SW 1018,8 12 1,4
13.11.2018 06:00:00 9,2 7,6 19 10 50 27 SSW 1018,2 - 1,4
13.11.2018 05:00:00 9,3 7,7 14 8 29 16 SSW 1017,4 - 0,0
13.11.2018 04:00:00 9,5 7,8 16 9 25 13 SSW 1017,2 12 0,0
13.11.2018 03:00:00 9,7 7,8 18 10 28 15 S 1016,9 - 0,0
13.11.2018 02:00:00 9,7 7,8 17 9 28 15 S 1016,8 - 0,0
13.11.2018 01:00:00 9,7 7,8 16 9 25 13 S 1016,1 12 0,0
13.11.2018 00:00:00 10,3 7,9 18 10 26 14 SSW 1015,7 - 0,0
12.11.2018 23:00:00 10,4 8,0 16 9 28 15 SSW 1015,6 - 0,0
12.11.2018 22:00:00 10,4 8,0 19 10 30 16 S 1015,7 - 0,0
12.11.2018 21:00:00 10,0 7,8 16 9 25 13 S 1015,7 - 0,0
12.11.2018 20:00:00 10,5 7,9 16 9 25 14 S 1015,6 - 0,0
12.11.2018 19:00:00 11,0 7,9 13 7 21 12 S 1015,1 - 0,0
12.11.2018 18:00:00 12,1 8,0 14 8 24 13 SSW 1015,0 - 0,0
12.11.2018 17:00:00 12,5 8,0 17 9 30 16 SW 1014,1 - 0,0
12.11.2018 16:00:00 12,9 8,0 18 10 35 19 SSW 1013,7 10 0,0
12.11.2018 15:00:00 13,3 7,9 18 10 37 20 SW 1013,2 - 0,0
12.11.2018 14:00:00 13,3 9,0 16 9 31 17 SSW 1013,0 - 0,0
12.11.2018 13:00:00 12,1 8,9 19 10 29 16 S 1012,7 - 0,0
12.11.2018 12:00:00 11,3 9,2 16 9 27 15 S 1012,5 - 0,2
12.11.2018 11:00:00 10,5 9,1 15 8 21 11 S 1012,3 - 0,2
12.11.2018 10:00:00 10,4 8,5 16 8 22 12 S 1012,2 8 0,0
12.11.2018 09:00:00 10,5 8,3 13 7 22 12 S 1011,5 - 0,0
12.11.2018 08:00:00 10,4 8,7 18 10 29 16 S 1010,6 - 0,2
12.11.2018 07:00:00 10,6 9,4 16 9 22 12 S 1010,4 10 0,0
12.11.2018 06:00:00 10,6 9,7 14 8 23 13 S 1010,0 - 0,0
12.11.2018 05:00:00 10,6 9,5 12 6 25 13 S 1009,6 - 0,0
12.11.2018 04:00:00 10,3 9,2 13 7 26 14 S 1009,6 - 0,0
12.11.2018 03:00:00 10,1 8,7 12 7 22 12 S 1009,9 - 0,0
12.11.2018 02:00:00 9,9 8,5 14 8 21 12 S 1009,3 - 0,0
12.11.2018 01:00:00 9,6 8,4 16 8 22 12 S 1009,4 20 0,0
12.11.2018 00:00:00 9,7 8,3 12 7 18 10 S 1009,3 - 0,0
11.11.2018 23:00:00 10,0 8,3 11 6 24 13 S 1009,0 - 0,0
11.11.2018 22:00:00 10,1 8,4 16 8 25 13 S 1008,8 20 0,0
11.11.2018 21:00:00 10,3 8,4 13 7 24 13 S 1007,7 - 0,0
11.11.2018 20:00:00 10,4 8,5 14 7 21 11 S 1007,1 - 0,0
11.11.2018 19:00:00 11,1 8,8 10 6 20 11 S 1006,5 15 0,0
11.11.2018 18:00:00 11,6 8,8 16 8 27 15 SSW 1005,9 - 0,2
11.11.2018 17:00:00 12,7 8,4 21 11 36 19 SSW 1005,0 - 0,0
11.11.2018 16:00:00 13,6 8,6 23 12 40 22 SSW 1004,1 - 0,0
11.11.2018 15:00:00 14,1 8,5 25 13 44 24 SSW 1003,2 - 0,0
11.11.2018 14:00:00 13,8 8,6 21 12 59 32 SSW 1002,7 - 0,0
11.11.2018 13:00:00 13,9 8,9 29 16 53 29 SSW 1002,3 - 0,0
11.11.2018 12:00:00 13,4 8,9 31 17 50 27 SSW 1001,9 - 0,0
11.11.2018 11:00:00 12,2 8,7 29 16 48 26 SSW 1001,5 - 0,0
11.11.2018 10:00:00 11,6 8,3 26 14 42 23 S 1000,8 - 0,0
11.11.2018 09:00:00 11,1 8,1 26 14 44 24 S 1000,0 - 0,0
11.11.2018 08:00:00 11,1 8,3 24 13 38 20 S 999,0 - 0,0
11.11.2018 07:00:00 11,1 8,7 22 12 36 19 S 998,8 15 0,0
11.11.2018 06:00:00 11,1 8,8 24 13 37 20 S 998,3 - 0,0
11.11.2018 05:00:00 11,5 8,7 21 11 36 20 S 998,5 - 0,0
11.11.2018 04:00:00 11,1 8,7 19 10 31 17 S 998,5 15 0,0
11.11.2018 03:00:00 11,2 8,8 21 11 36 19 S 998,6 - 0,0
11.11.2018 02:00:00 11,1 8,5 21 11 36 19 S 998,4 - 0,0
11.11.2018 01:00:00 11,5 8,7 24 13 35 19 S 998,3 25 0,0
11.11.2018 00:00:00 11,7 9,1 24 13 41 22 S 998,3 - 0,0
10.11.2018 23:00:00 11,3 9,6 20 11 32 18 S 998,3 - 0,0
10.11.2018 22:00:00 10,7 9,0 23 12 34 19 S 998,6 25 0,0
10.11.2018 21:00:00 10,3 8,7 22 12 32 17 SSE 998,7 - 0,0
10.11.2018 20:00:00 10,4 8,8 20 11 32 17 S 998,8 - 0,0
10.11.2018 19:00:00 11,0 8,9 16 9 26 14 S 998,8 25 0,0
10.11.2018 18:00:00 11,9 9,5 16 9 24 13 S 998,8 - 0,0
10.11.2018 17:00:00 12,5 9,3 16 9 34 18 S 998,3 - 0,0
10.11.2018 16:00:00 13,2 9,3 19 10 33 18 S 998,2 - 0,0
10.11.2018 15:00:00 12,4 9,8 14 8 30 16 S 998,3 - 0,2
10.11.2018 14:00:00 12,6 10,5 20 11 36 20 S 998,4 - 0,0
10.11.2018 13:00:00 13,0 10,2 23 12 40 21 S 998,5 - 0,0
10.11.2018 12:00:00 13,1 10,3 22 12 35 19 S 998,5 - 0,0
10.11.2018 11:00:00 13,0 10,4 19 11 38 20 S 998,8 - 0,0
10.11.2018 10:00:00 12,8 10,5 19 11 31 17 S 998,8 25 0,0
10.11.2018 09:00:00 11,6 9,8 23 12 35 19 S 998,4 - 0,0
10.11.2018 08:00:00 11,7 9,9 21 12 34 18 SSW 997,6 - 0,0
10.11.2018 07:00:00 11,4 10,1 15 8 36 19 S 996,9 - 0,2
10.11.2018 06:00:00 11,1 10,0 24 13 41 22 S 996,7 - 0,4
10.11.2018 05:00:00 11,0 9,7 23 12 47 26 S 996,7 - 1,1
10.11.2018 04:00:00 10,9 9,5 29 16 49 27 S 996,5 - 2,2
10.11.2018 03:00:00 11,0 9,3 30 16 49 26 S 996,9 - 1,8
10.11.2018 02:00:00 11,4 9,3 33 18 52 28 S 997,5 - 0,8
10.11.2018 01:00:00 11,8 9,0 32 17 56 31 S 998,7 - 0,2
10.11.2018 00:00:00 12,1 8,8 28 15 48 26 S 1000,1 - 0,0
09.11.2018 23:00:00 11,8 8,6 31 17 49 26 S 1000,9 - 0,0
09.11.2018 22:00:00 11,5 8,4 25 13 44 24 SSE 1002,1 - 0,0
09.11.2018 21:00:00 11,6 8,3 31 17 49 26 SSE 1002,9 - 0,0
09.11.2018 20:00:00 11,1 8,5 22 12 39 21 SSE 1004,4 - 0,0
09.11.2018 19:00:00 11,3 8,3 22 12 34 19 SSE 1005,3 - 0,0
09.11.2018 18:00:00 11,8 8,5 18 10 27 15 SSE 1005,7 - 0,0
09.11.2018 17:00:00 12,8 8,7 14 8 25 14 S 1006,5 - 0,0
09.11.2018 16:00:00 14,1 8,3 19 10 31 17 SSW 1007,2 - 0,0
09.11.2018 15:00:00 14,1 8,7 21 12 41 22 S 1007,9 - 0,0
09.11.2018 14:00:00 13,6 8,2 26 14 41 22 SSE 1007,9 - 0,0
09.11.2018 13:00:00 12,2 7,9 29 15 44 24 S 1008,9 - 0,0
09.11.2018 12:00:00 11,1 7,4 23 12 36 19 S 1009,5 - 0,0
09.11.2018 11:00:00 9,6 6,7 22 12 36 19 SSE 1009,9 - 0,0
09.11.2018 10:00:00 8,8 6,4 21 12 30 16 SSE 1010,6 15 0,0
09.11.2018 09:00:00 7,5 5,8 16 9 25 14 SSE 1010,8 - 0,0
09.11.2018 08:00:00 7,2 5,3 18 10 29 15 SSE 1011,2 - 0,0
09.11.2018 07:00:00 7,3 5,3 19 10 29 16 SSE 1011,4 15 0,0
09.11.2018 06:00:00 7,1 4,9 16 9 22 12 SSE 1012,1 - 0,0
09.11.2018 05:00:00 7,2 4,8 14 7 24 13 SE 1012,4 - 0,0
09.11.2018 04:00:00 7,5 5,0 16 9 25 14 SE 1012,5 15 0,0
09.11.2018 03:00:00 7,4 4,9 17 9 26 14 SE 1013,0 - 0,0
09.11.2018 02:00:00 7,4 4,9 18 10 27 14 ESE 1013,8 - 0,0
09.11.2018 01:00:00 7,2 5,0 19 10 25 14 ESE 1014,4 - 0,0
09.11.2018 00:00:00 7,4 5,4 17 9 26 14 ESE 1015,1 - 0,0
08.11.2018 23:00:00 7,6 5,4 17 9 26 14 ESE 1015,6 - 0,0
08.11.2018 22:00:00 7,9 5,5 16 9 28 15 SE 1016,4 - 0,0
08.11.2018 21:00:00 8,1 5,9 21 11 29 16 SE 1016,8 - 0,0
08.11.2018 20:00:00 8,1 5,9 16 9 26 14 SE 1017,3 - 0,0
08.11.2018 19:00:00 9,1 6,4 17 9 32 17 SE 1017,8 12 0,0
08.11.2018 18:00:00 9,5 6,2 22 12 36 19 SSE 1017,9 - 0,0
08.11.2018 17:00:00 10,7 6,8 22 12 33 18 SE 1017,7 - 0,0
08.11.2018 16:00:00 12,8 4,5 16 9 26 14 SSE 1017,7 - 0,0
08.11.2018 15:00:00 13,6 5,7 13 7 31 17 S 1018,2 - 0,0
08.11.2018 14:00:00 13,3 5,4 19 10 34 18 S 1018,7 - 0,0
08.11.2018 13:00:00 12,5 5,2 20 11 31 17 S 1019,0 - 0,0

tt = temperature
td = dewpoint
ff = wind speed
fx = gusts
dd = wind direction
ppp = reduced air pressure
vv = visibility
rr = precipitation

Next stations